Location: Sternwarte Stuttgart
(48.7824°N, 9.1965°E)
Time: 14:32:18
(UTC+00:00)

Daily predictions for brighter satellites

Satellite Brightness Start Highest point End
(mag) Time Altitude Azimuth Time Altitude Azimuth Time Altitude Azimuth
Cosmos 1486 Rocket 4.1 17:43:35 10° NNW 17:48:51 89° E 17:54:06 10° SSE
Cosmos 1315 Rocket 3.1 17:45:44 10° NNW 17:49:52 81° W 17:53:59 10° S
SPOT 3 Rocket 3.7 17:45:26 10° SE 17:50:25 53° ENE 17:55:27 10° N
CZ-2C R/B 3.2 17:49:43 10° SSE 17:52:47 35° E 17:57:05 10° NNE
CENTAUR R/B 3.7 17:47:04 10° WSW 17:53:10 46° NNW 18:00:13 10° NE
Cosmos 2360 Rocket 3.7 17:49:21 10° N 17:53:35 21° NE 17:57:47 10° E
Cosmos 1833 Rocket 2.8 17:48:01 10° SSW 17:53:39 89° WNW 17:59:21 10° NNE
Aureole 2 Rocket 3.5 17:50:39 10° N 17:53:53 28° ENE 17:56:56 10° ESE
FREGAT/IRIS 3.2 17:52:13 10° SE 17:54:55 35° ENE 17:57:40 10° N
Cosmos 1626 Rocket 3.7 17:50:38 10° N 17:55:01 52° ENE 17:59:18 10° SSE
SKYMED 2 3.9 17:51:00 10° N 17:55:22 72° WNW 17:59:40 10° SSW
Ariane Rocket 4.0 17:51:41 10° S 17:56:36 51° W 18:01:35 10° NNW
SJ-6B 3.8 17:53:25 10° SE 17:56:39 27° ENE 17:59:57 10° N
Cosmos 1980 Rocket 2.3 17:52:09 10° NNW 17:57:50 86° WSW 18:03:27 10° SSE
Cosmos 1544 Rocket 3.5 17:55:38 10° S 18:00:00 83° E 18:04:25 10° N
BREEZE-M DEB (TANK) 3.9 17:58:10 10° WSW 18:02:20 77° SSE 18:18:15 10° ENE
H-2A R/B 4.1 18:02:55 10° S 18:06:40 44° W 18:10:24 10° NNW
Cosmos 2034 Rocket 4.0 18:01:44 10° N 18:07:57 89° E 18:14:13 10° S
GP-B 3.5 18:10:11 10° NNE 18:14:26 43° E 18:18:40 10° SSE
Iridium 96 4.4 18:11:18 10° N 18:14:46 78° W 18:17:45 10° S
USA 234 3.6 18:09:05 10° E 18:15:25 56° NNE 18:21:48 10° NW
YAOGAN 6 2.8 18:14:35 10° SSE 18:18:02 47° ENE 18:21:28 10° N
SL-27 R/B 4.4 18:16:15 10° SW 18:19:16 31° WNW 18:22:19 10° N
Cosmos 2219 Rocket 4.2 18:16:33 10° N 18:19:29 14° NNE 18:22:24 10° ENE
Cosmos 2333 Rocket 4.2 18:16:47 10° N 18:19:37 14° NNE 18:22:27 10° ENE
Cosmos 1707 2.7 18:15:49 10° N 18:19:41 86° W 18:23:31 10° S
MTI 4.4 18:16:53 10° NNE 18:19:49 32° E 18:22:44 10° SSE
SL-16 R/B 2.4 18:15:12 10° NNW 18:20:47 54° ENE 18:26:16 10° SE
ATLAS 3B R/B 4.5 18:16:00 10° WNW 18:21:31 25° NNW 18:26:55 10° NE
CZ-4 R/B 4.4 18:19:30 10° SW 18:22:22 19° W 18:25:13 10° NW
Cosmos 1634 Rocket 4.2 18:16:32 10° N 18:22:44 53° ENE 18:28:50 10° SSE
Tsikada Rocket 3.9 18:18:15 10° S 18:24:23 72° E 18:30:38 10° NNE
Cosmos 1939 Rocket 3.2 18:22:40 10° SE 18:26:39 48° ENE 18:30:37 10° N
Cosmos 2322 Rocket 2.4 18:21:31 10° NNW 18:27:09 56° ENE 18:32:18 12° SE
ISS -2.0 18:26:39 10° S 18:28:45 16° SE 18:28:50 16° SE
BREEZE-M DEB (TANK) 4.4 18:11:27 10° W 18:29:48 86° N 18:33:07 17° E
COSMOS 2487 2.5 18:27:10 10° S 18:30:33 50° ESE 18:33:58 10° NNE
Cosmos 1503 Rocket 4.3 18:30:37 10° NNW 18:35:54 69° WSW 18:41:05 10° SSE
BREEZE-M DEB (TANK) 3.8 18:33:15 10° SSW 18:40:11 26° SSE 18:41:42 21° SE
Cosmos 1674 3.6 18:37:26 10° N 18:40:51 29° ENE 18:42:01 24° ESE
Lacrosse 5 3.2 18:38:49 10° WNW 18:43:23 32° N 18:47:27 12° ENE
In-Cosmos 22 4.1 18:38:42 10° N 18:44:15 81° ENE 18:49:54 10° SSE
Iridium 2 3.5 18:42:05 10° N 18:45:53 76° E 18:49:39 10° S
Cosmos 1992 Rocket 3.9 18:40:54 10° SSW 18:46:06 72° ESE 18:51:21 10° NNE
Cosmos 2237 Rocket 4.3 18:47:09 10° N 18:49:26 12° NNE 18:51:43 10° NE
Meteor 2-5 Rocket 3.9 18:43:41 10° NNW 18:49:40 84° W 18:55:36 10° S
CZ-2D R/B 4.0 18:46:24 10° S 18:50:13 55° W 18:54:05 10° NNW
Abrixas rocket 2.0 18:47:05 10° W 18:50:14 85° S 18:51:16 39° E
COSMOS 2455 3.2 18:45:31 10° S 18:51:01 39° ESE 18:56:33 10° NE
Cosmos 1508 4.5 18:49:26 10° S 18:52:24 83° E 18:55:34 10° N
Cosmos 1544 3.5 18:48:47 10° SSW 18:52:29 66° W 18:56:11 10° N
Cosmos 2279 Rocket 4.1 18:47:48 10° N 18:53:54 55° ENE 18:58:52 16° SSE
Cosmos 371 Rocket 3.7 18:51:03 10° S 18:55:31 38° ESE 19:00:01 10° NE
SL-24 R/B - RUBIN 2 3.6 18:52:08 10° SSW 18:56:43 56° SE 19:01:03 10° NE
Meteor 1-22 Rocket 4.4 18:50:58 10° S 18:56:51 58° E 19:02:35 10° NNE
Landsat 4 4.2 18:53:41 10° NNE 18:57:10 36° E 18:57:32 35° ESE
Resurs 01 Rocket 1.8 18:56:33 26° SE 18:58:47 53° ENE 19:03:07 10° N
Envisat 4.3 18:55:49 10° SSW 19:00:36 41° W 19:05:26 10° NNW
Cosmos 1606 Rocket 3.7 18:56:47 10° SSE 19:00:59 50° E 19:05:16 10° NNE
Cosmos 1825 Rocket 3.5 18:57:09 10° N 19:01:38 81° E 19:05:04 17° SSE
NOAA 11 4.1 18:58:17 13° SSE 19:03:15 78° ENE 19:08:44 10° NNW
Meteor 2-20 4.4 18:57:30 10° S 19:03:35 90° ENE 19:09:42 10° N
Cosmos 1726 Rocket 3.7 19:05:27 27° SSE 19:07:27 48° E 19:11:41 10° NNE
Meteor 1-24 Rocket 3.9 19:02:20 10° NNW 19:08:25 87° W 19:14:27 10° S
ERS-2 4.2 19:10:40 15° NE 19:10:40 15° NE 19:12:05 10° NNE
ARGOS 3.6 19:10:30 33° ESE 19:12:14 42° ENE 19:17:19 10° N
Cosmos 2180 Rocket 4.5 19:07:44 10° N 19:13:56 63° ENE 19:17:34 25° SSE
SJ-11-01 4.3 19:11:36 19° SSE 19:14:59 87° WSW 19:19:48 10° NNW
USA 186 2.7 19:14:54 21° SSW 19:16:42 45° W 19:19:38 10° NNW
H-2A R/B 2.4 19:19:46 38° E 19:20:34 41° ENE 19:25:18 10° N
deb Kosmos-1763 4.2 19:18:39 10° SSW 19:22:23 74° WNW 19:26:09 10° NNE
USA 267 3.2 19:15:59 10° ENE 19:22:32 71° SE 19:29:02 10° SW
Cosmos 1766 3.4 19:18:53 10° SSW 19:22:48 74° W 19:26:48 10° N
Cosmos 1758 Rocket 3.8 19:18:53 10° NNW 19:23:18 68° W 19:26:05 21° S
Spot 2 Rocket 3.4 19:22:29 38° SE 19:24:22 69° ENE 19:29:24 10° N
Cosmos 2082 Rocket 4.3 19:25:14 10° WSW 19:29:57 26° NW 19:34:40 10° NNE
Cosmos 1777 Rocket 3.9 19:26:27 10° NNW 19:31:47 84° ENE 19:33:30 44° SSE
ERS-1 Rocket 3.9 19:32:39 30° ENE 19:32:39 30° ENE 19:36:52 10° N
Resurs 1-3 3.9 19:30:25 29° S 19:32:32 66° WSW 19:36:56 10° NNW
Cosmos 1953 Rocket 3.8 19:29:05 10° NNW 19:33:30 69° W 19:35:25 33° S
EO 1 Del DPAF 3.8 19:31:02 10° N 19:34:48 57° WNW 19:38:32 10° SSW
BREEZE M DEB (TANK) 3.8 19:31:53 10° W 19:35:29 84° N 19:39:33 31° E
Meteor 2-11 Rocket 4.3 19:31:53 10° N 19:38:00 86° E 19:40:58 32° SSE
Cosmos 2360 Rocket 2.1 19:32:44 10° NNW 19:38:26 86° ENE 19:40:07 48° SSE
Cosmos 2228 2.8 19:39:08 69° S 19:39:37 85° ESE 19:43:55 10° N
USA 229 DEB 3.5 19:35:43 10° SSW 19:42:19 66° SE 19:49:11 10° NE
USA 229 3.5 19:35:49 10° SSW 19:42:25 65° SE 19:49:16 10° NE
Cosmos 2058 Rocket 3.0 19:49:45 81° S 19:49:58 90° SSW 19:54:32 10° N
COSMOS 2428 3.0 19:47:35 10° NNW 19:53:12 51° NE 19:53:36 50° ENE
SL-16 R/B 4.2 19:51:35 10° N 19:54:42 15° NNE 19:55:52 14° NE
USA 234 3.3 19:56:27 48° SSE 19:58:21 72° SW 20:04:55 10° WNW
Timation 2 Rocket 4.2 19:55:33 10° SSW 20:02:25 79° WNW 20:09:21 10° NNE
SL-16 R/B 3.9 19:59:49 10° NW 20:04:35 28° WSW 20:08:09 15° SSW
ISS -0.7 20:01:32 10° WSW 20:01:34 10° WSW 20:01:34 10° WSW
Cosmos 2219 Rocket 2.6 19:59:22 10° NNW 20:04:51 49° NE 20:04:51 49° NE
Cosmos 2333 Rocket 2.7 19:59:55 10° NNW 20:05:23 46° NE 20:05:23 46° NE
BREEZE-M DEB (TANK) 3.7 20:05:57 10° SW 20:10:26 59° E 20:21:42 10° ENE
Cosmos 2322 Rocket 3.9 20:06:07 10° NW 20:10:52 28° WSW 20:14:09 16° SSW
Cosmos 1953 4.3 20:14:12 22° N 20:14:12 22° N 20:15:42 10° N
Cosmos 1626 4.3 20:08:45 10° N 20:10:04 20° N 20:10:04 20° N
Terra 3.6 20:14:44 21° NNE 20:14:44 21° NNE 20:16:57 10° N
ATLAS 3B R/B 4.3 20:09:07 10° NW 20:14:30 24° NNE 20:17:36 18° NE
Cosmos 2322 3.7 20:10:03 10° NNW 20:15:42 72° WSW 20:16:04 69° SW
MetOp-B 4.1 20:21:16 75° WSW 20:21:18 75° WSW 20:26:41 10° NNW
Cosmos 1898 Rocket 4.2 20:18:25 10° NNW 20:22:21 44° NNE 20:22:21 44° NNE
Thor Agena Rocket 4.1 20:19:01 10° N 20:24:12 56° WNW 20:26:29 32° SW
SPOT 5 4.1 20:27:04 33° N 20:27:04 33° N 20:29:51 10° N
Lacrosse 5 2.6 20:22:17 10° NW 20:26:38 47° N 20:26:38 47° N
Cosmos 2237 Rocket 3.1 20:29:48 10° NNW 20:34:09 38° NNE 20:34:09 38° NNE
Resurs 01 Rocket 3.9 20:34:08 16° WSW 20:35:36 19° W 20:38:44 10° NW
COSMOS 2455 3.7 20:31:03 10° WSW 20:36:53 48° NW 20:42:44 10° NNE
Nadezhda 4 Rocket 4.2 20:35:54 52° SW 20:37:13 65° WNW 20:43:23 10° N
BREEZE-M R/B 3.7 20:32:49 10° WSW 20:40:09 56° WSW 20:40:09 56° WSW
SJ 16-02 3.8 20:47:39 10° N 20:48:51 16° N 20:48:51 16° N
NOSS 0 Rocket 4.2 20:46:10 10° NNW 20:51:20 61° N 20:51:20 61° N
ARGOS 4.5 20:52:01 32° WSW 20:52:36 32° W 20:57:26 10° NNW
Cosmos 1092 Rocket 4.1 20:54:43 69° NW 20:54:43 69° NW 21:00:39 10° N
H-2A R/B 3.5 21:00:24 29° W 21:00:24 29° W 21:04:33 10° NNW
USA 267 3.7 21:02:28 32° NE 21:05:27 56° NNW 21:11:48 10° W
Cosmos 1607 4.5 21:00:39 10° NW 21:05:46 54° WNW 21:05:46 54° WNW
ERS-1 Rocket 4.5 21:12:40 33° WNW 21:12:40 33° WNW 21:15:56 10° NNW
CZ-2C R/B 4.3 21:19:31 41° NNW 21:19:31 41° NNW 21:23:10 10° NNW
Cosmos 2360 Rocket 4.4 21:18:13 10° WNW 21:21:40 17° W 21:21:54 17° WSW
COSMOS 2428 4.4 21:32:14 10° NW 21:35:36 27° WNW 21:35:36 27° WNW
CENTAUR R/B 4.3 21:32:18 10° NW 21:38:48 32° NNE 21:41:19 27° NE
SL-16 R/B 3.8 21:34:38 10° NNW 21:37:44 31° N 21:37:44 31° N
Cosmos 2219 Rocket 4.0 21:43:41 10° NW 21:46:34 25° WNW 21:46:34 25° WNW
Cosmos 2333 Rocket 4.0 21:44:29 10° NW 21:47:24 26° WNW 21:47:24 26° WNW
Terra 4.3 21:53:37 19° NW 21:53:37 19° NW 21:55:07 10° NNW
ATLAS 3B R/B 3.7 22:00:14 10° NW 22:04:49 40° N 22:04:49 40° N
Cosmos 2237 Rocket 4.3 22:14:01 10° NW 22:15:58 21° NW 22:15:58 21° NW
USA 267 4.5 22:49:51 35° NW 22:49:51 35° NW 22:53:57 10° WNW
ATLAS 2AS CENTAUR R/B 4.3 22:51:58 31° NE 22:51:58 31° NE 22:55:53 10° NE
Cosmos 2297 Rocket 4.4 23:28:30 21° N 23:28:30 21° N 23:30:44 10° NNE
CENTAUR R/B 3.8 23:23:10 10° NW 23:28:27 47° NNW 23:28:27 47° NNW
SL-16 R/B 4.4 23:37:56 24° NE 23:37:56 24° NE 23:42:22 10° N
Cosmos 2227 Rocket 4.4 23:53:48 20° NNW 23:53:48 20° NNW 23:56:24 10° N
